Wind_Speed
16 16 16 16 16 15 15 14 14 14 14 14 14 14 14 14 13 13 12 12 12 12 12 12 12 11 10 10 10 10 10 10 10 9 9 9 9 9 8 8 8 8 8
18 17 17 17 17 17 17 17 17 16 16 16 16 16 15 15 15 15 15 14 14 14 14 14 13 13 12 12 12 12 12 11 11 10 10 10 10 10 10 9 9 9 9
19 19 19 19 19 19 19 18 18 18 18 18 18 18 18 17 17 17 17 17 16 16 16 16 15 15 15 15 14 14 13 13 13 12 12 12 12 12 11 11 11 10 10
20 20 20 20 20 20 20 20 20 20 20 20 20 20 20 20 19 19 19 19 19 19 18 18 18 17 17 16 16 16 15 15 15 15 14 14 14 14 13 13 12 12 11
21 21 21 21 21 21 21 22 22 22 22 22 22 22 22 22 21 21 21 21 21 20 20 20 20 19 19 18 18 18 17 17 16 16 16 16 16 16 15 15 14 14 13
23 23 23 23 23 23 23 23 24 24 24 24 24 24 24 24 24 23 23 22 23 23 23 22 22 21 21 20 20 20 19 19 18 18 18 18 18 17 17 17 16 16 15
23 24 24 24 24 25 25 25 25 25 25 26 26 26 26 26 26 26 26 25 24 24 24 24 24 23 23 23 22 22 21 21 21 20 20 20 19 19 18 18 18 17 17
24 25 25 26 26 26 26 26 27 27 27 27 27 27 27 27 27 27 27 27 27 27 26 25 26 25 25 25 24 24 23 23 22 22 22 22 22 21 20 20 20 19 19
25 26 26 27 27 27 27 27 28 28 28 28 28 28 28 28 28 28 28 28 29 28 28 27 27 27 27 26 25 25 25 24 24 24 23 23 23 23 22 22 21 20 20
26 27 28 28 28 28 29 28 28 29 29 29 29 29 30 30 30 30 30 30 30 29 29 29 29 29 29 29 28 27 27 26 26 25 25 25 25 25 24 24 23 22 21
27 28 29 29 29 30 30 30 29 30 31 31 31 31 31 32 32 32 31 31 31 30 30 31 31 30 30 30 30 30 29 29 28 28 27 26 27 27 27 26 26 25 24
29 29 30 31 31 31 32 32 31 31 32 32 32 33 33 33 33 33 32 32 32 32 31 32 32 31 31 31 31 31 31 31 31 30 30 29 29 29 29 29 28 28 27
30 31 32 32 32 33 34 34 34 34 34 33 33 34 34 34 34 33 34 33 33 33 33 33 33 33 33 33 33 33 33 33 32 32 32 31 31 31 31 31 30 30 29
31 32 33 33 34 34 35 35 36 36 36 36 35 35 35 34 34 34 34 34 34 34 34 35 34 34 35 35 35 35 35 35 34 34 34 33 32 32 32 32 31 31 31
32 33 34 34 34 35 36 36 36 36 36 36 36 36 36 36 35 36 35 35 35 35 35 35 35 35 36 36 36 36 36 36 36 36 35 34 33 33 34 33 33 32 32
34 35 35 36 36 37 37 37 37 37 37 37 37 37 37 38 37 37 37 37 37 36 36 36 36 36 36 37 38 38 38 37 37 37 37 36 35 35 35 35 34 34 33
36 36 37 37 38 38 38 38 38 39 38 38 38 38 39 39 39 39 39 39 38 38 37 38 38 37 37 38 38 39 39 39 39 39 39 38 37 37 37 37 36 35 35
38 39 39 39 39 39 39 39 40 41 40 40 40 40 41 41 40 40 40 40 40 40 39 40 39 40 39 39 39 39 39 40 41 40 40 39 39 39 39 39 38 38 38
39 40 40 40 40 40 41 42 41 42 42 42 42 42 42 42 42 42 41 41 41 41 41 41 41 41 41 41 41 40 40 40 41 42 42 42 41 40 40 40 40 40 39
40 40 41 41 41 42 42 42 43 44 44 44 44 44 43 43 44 44 43 43 43 43 43 43 42 42 42 42 41 41 41 42 42 42 43 43 43 42 42 43 43 42 42
41 41 41 41 41 42 43 43 44 44 45 45 45 45 45 45 45 45 45 44 44 44 44 44 45 44 43 43 43 43 43 42 43 43 43 44 44 44 44 44 45 45 44
41 41 42 42 42 42 43 44 44 45 45 44 45 45 46 46 46 47 47 46 46 46 46 45 45 45 45 45 45 45 45 45 44 44 44 45 45 46 46 46 46 47 46
41 42 42 42 42 42 43 43 44 44 45 46 45 45 46 47 47 47 48 48 47 47 47 46 46 47 46 47 47 47 47 48 47 46 47 46 46 47 47 47 47 47 47
42 42 42 42 42 42 42 42 43 44 45 46 47 47 46 47 48 49 48 48 48 48 48 48 49 49 48 47 48 49 49 48 48 48 47 46 46 47 48 47 47 48 48
42 42 42 41 41 42 42 43 43 44 45 46 46 47 48 48 49 49 49 48 48 48 48 49 49 50 50 49 49 49 49 50 50 49 49 48 47 48 48 49 49 50 50
43 43 42 42 42 42 43 43 44 45 46 46 47 48 49 49 49 50 51 50 50 49 49 49 50 50 50 51 51 51 50 51 51 51 51 50 50 50 50 51 51 51 51
Wind_Direction
241 242 244 243 243 244 243 244 247 249 251 252 252 253 252 252 254 254 252 250 249 248 246 244 245 246 248 248 247 247 246 246 246 245 244 244 242 246 249 248 249 245 241
243 244 245 245 245 246 247 249 251 252 254 255 255 255 255 255 254 254 254 252 250 248 247 246 246 246 247 249 250 250 250 248 245 246 246 246 246 247 248 249 250 249 244
244 244 246 246 247 249 250 252 254 255 257 258 259 259 258 257 257 256 255 254 252 251 250 249 248 248 248 249 250 251 250 248 247 248 248 247 248 248 249 248 250 251 249
246 246 247 248 249 250 251 253 255 257 259 260 260 260 260 259 259 257 256 255 254 252 252 251 250 250 249 250 250 249 248 249 250 248 248 248 248 250 250 249 250 250 250
247 248 249 250 251 252 252 254 256 258 260 261 261 260 260 260 259 258 256 255 254 253 253 252 251 251 250 250 249 249 248 249 250 250 248 248 248 250 250 249 251 250 250
249 250 251 252 253 253 254 255 256 258 259 260 260 260 259 259 259 258 256 254 253 252 252 252 252 252 251 250 250 249 249 250 250 250 250 250 248 249 250 249 250 250 249
251 251 252 254 255 255 256 256 258 259 260 260 260 259 259 258 259 258 257 256 254 253 251 252 252 252 251 251 251 251 250 251 250 250 250 250 249 249 249 248 248 249 250
254 254 255 256 258 259 259 260 260 261 262 261 260 259 258 257 257 257 256 256 256 255 254 253 253 252 251 251 251 251 251 251 251 250 250 249 249 250 250 248 248 249 248
256 257 257 257 258 260 260 260 262 262 262 261 260 258 257 257 257 257 257 256 256 255 255 255 254 253 253 253 252 251 251 251 251 251 251 250 249 250 250 248 247 248 248
257 259 259 260 260 261 262 261 261 262 262 261 259 258 256 256 257 257 257 257 257 257 256 255 255 255 254 253 253 252 251 252 251 252 251 250 249 249 249 248 247 248 248
259 260 261 262 263 263 263 262 263 262 261 261 260 259 258 257 257 257 257 257 256 256 256 256 255 254 254 253 252 252 252 253 252 252 252 250 249 249 249 249 248 248 249
261 262 263 263 263 264 264 264 263 261 261 260 261 260 259 258 257 256 256 257 256 256 256 256 255 254 253 253 252 252 252 252 252 252 251 250 250 250 250 249 248 248 249
262 262 263 263 264 264 265 265 263 262 260 259 260 261 260 259 258 256 255 256 256 256 256 256 255 255 254 253 252 252 252 252 252 253 252 252 251 250 249 249 249 249 249
264 264 264 264 265 265 265 266 265 263 262 262 261 260 261 259 258 257 256 256 257 258 257 256 255 255 254 253 253 253 253 253 254 254 253 251 250 249 248 248 248 248 249
266 266 265 264 264 266 266 266 266 263 263 262 261 261 259 258 257 257 256 256 257 257 257 257 256 255 255 254 253 253 253 254 254 254 253 251 250 249 248 247 247 247 249
265 266 266 266 266 266 266 266 264 263 262 261 261 260 260 258 257 257 256 255 256 256 256 257 256 256 256 255 254 254 254 253 254 254 253 252 250 249 249 248 248 247 248
266 266 267 267 266 266 266 266 265 263 262 261 260 259 259 259 258 257 256 255 255 255 256 256 255 255 255 255 255 255 253 253 254 254 254 253 251 249 249 249 248 247 246
266 267 267 267 266 266 266 267 266 263 262 261 260 259 260 259 259 257 257 256 254 255 257 257 255 254 254 254 255 255 255 254 253 253 253 253 251 251 250 248 248 248 247
267 268 267 267 266 265 266 267 266 264 262 261 261 260 259 260 259 258 257 256 256 256 256 256 256 255 255 255 255 255 255 254 254 253 253 252 251 251 249 248 248 248 248
268 268 268 267 267 267 267 267 266 264 263 262 261 260 259 259 259 258 257 257 257 257 257 256 256 256 256 256 256 256 256 255 253 253 253 252 252 250 249 248 248 248 248
269 269 269 268 269 269 268 267 266 264 263 263 261 260 259 258 258 258 258 259 258 258 258 257 256 256 257 257 256 256 256 255 253 253 253 253 252 250 249 249 248 248 247
269 270 270 270 269 270 269 267 266 264 263 263 262 261 259 258 258 258 257 258 258 259 258 258 257 257 257 257 257 257 256 256 255 253 254 254 252 251 250 249 248 248 246
270 270 270 270 269 269 268 268 266 265 264 263 262 261 260 259 258 258 258 258 258 258 259 258 257 258 257 257 257 257 258 258 256 255 255 255 253 252 251 249 249 247 247
270 270 270 270 270 269 269 268 267 266 265 264 263 262 261 260 259 258 258 258 257 257 257 257 258 258 258 257 257 257 257 257 256 256 256 255 253 252 252 251 249 248 247
270 269 269 269 270 269 269 269 267 266 265 265 264 263 263 262 260 259 258 258 257 257 258 257 257 258 257 257 257 257 256 256 256 256 255 253 252 251 251 251 250 249 248
269 268 268 269 269 270 269 268 267 266 266 266 265 265 264 263 263 261 261 259 259 258 258 258 257 257 257 257 257 256 256 256 256 256 256 254 252 252 251 251 250 250 249
Height
5843 5843 5844 5845 5845 5846 5846 5847 5847 5848 5848 5849 5849 5849 5849 5850 5850 5850 5850 5850 5850 5850 5850 5850 5850 5851 5851 5851 5851 5852 5852 5852 5853 5853 5854 5854 5854 5855 5855 5855 5856 5856 5856
5840 5840 5841 5842 5842 5843 5844 5844 5844 5845 5845 5846 5846 5846 5846 5847 5847 5847 5847 5847 5847 5847 5848 5848 5848 5848 5848 5849 5849 5850 5850 5850 5851 5851 5852 5852 5852 5853 5853 5853 5854 5854 5854
5836 5837 5838 5838 5839 5840 5840 5841 5841 5842 5842 5842 5842 5843 5843 5843 5843 5843 5844 5844 5844 5844 5845 5845 5845 5846 5846 5846 5847 5847 5848 5848 5848 5849 5849 5850 5850 5850 5851 5851 5852 5852 5853
5832 5833 5834 5834 5835 5836 5837 5837 5838 5838 5838 5839 5839 5839 5839 5839 5840 5840 5840 5840 5840 5841 5841 5842 5842 5842 5843 5843 5844 5844 5845 5845 5846 5846 5847 5847 5847 5848 5849 5849 5850 5850 5850
5828 5829 5829 5830 5831 5832 5832 5833 5834 5834 5834 5835 5835 5835 5835 5835 5835 5835 5835 5836 5836 5836 5837 5838 5838 5839 5839 5840 5840 5841 5841 5842 5842 5843 5843 5844 5845 5845 5846 5846 5847 5847 5848
5824 5824 5825 5826 5827 5827 5828 5829 5829 5829 5830 5830 5830 5830 5830 5830 5830 5830 5830 5831 5831 5832 5832 5833 5834 5834 5835 5836 5836 5837 5838 5838 5839 5839 5840 5841 5841 5842 5842 5843 5844 5845 5845
5819 5820 5820 5821 5822 5822 5823 5824 5824 5824 5824 5824 5824 5824 5824 5824 5824 5825 5825 5826 5826 5827 5827 5828 5829 5829 5830 5831 5832 5833 5834 5834 5835 5835 5836 5837 5837 5838 5839 5840 5840 5841 5842
5814 5815 5815 5816 5816 5817 5817 5818 5818 5818 5818 5818 5818 5818 5818 5818 5818 5818 5819 5820 5820 5821 5821 5822 5823 5824 5825 5826 5827 5828 5829 5830 5830 5831 5832 5832 5833 5834 5835 5836 5837 5838 5838
5809 5810 5810 5810 5811 5811 5811 5812 5812 5812 5811 5811 5811 5811 5811 5811 5812 5812 5813 5813 5814 5815 5816 5816 5817 5818 5819 5820 5821 5822 5823 5824 5825 5826 5827 5828 5829 5830 5831 5832 5833 5834 5835
5803 5804 5804 5805 5805 5805 5805 5805 5805 5805 5804 5804 5804 5804 5804 5804 5805 5805 5806 5807 5807 5808 5809 5810 5811 5812 5813 5814 5815 5816 5817 5818 5819 5820 5821 5823 5824 5825 5826 5827 5828 5829 5830
5797 5798 5798 5798 5798 5798 5798 5798 5798 5798 5797 5797 5797 5797 5797 5797 5798 5798 5799 5800 5800 5801 5802 5803 5804 5805 5806 5807 5809 5810 5811 5812 5813 5814 5816 5817 5818 5819 5821 5822 5823 5824 5825
5791 5791 5791 5791 5791 5791 5791 5790 5790 5790 5790 5790 5790 5790 5790 5790 5790 5791 5791 5792 5793 5794 5795 5796 5796 5798 5799 5800 5802 5803 5804 5805 5806 5808 5809 5811 5812 5813 5814 5816 5817 5818 5820
5784 5784 5784 5784 5784 5783 5783 5782 5782 5782 5782 5782 5782 5782 5782 5782 5783 5783 5784 5785 5785 5786 5787 5788 5789 5790 5791 5793 5794 5795 5797 5798 5799 5800 5802 5804 5805 5806 5808 5809 5811 5812 5814
5777 5777 5777 5776 5776 5775 5775 5774 5774 5773 5773 5774 5773 5773 5774 5774 5775 5775 5776 5777 5777 5778 5779 5780 5781 5782 5784 5785 5786 5788 5789 5790 5791 5793 5794 5796 5797 5799 5800 5802 5804 5805 5807
5769 5769 5769 5768 5767 5767 5766 5765 5765 5764 5764 5764 5764 5765 5765 5766 5766 5767 5768 5768 5769 5770 5771 5772 5773 5774 5775 5777 5778 5779 5781 5782 5783 5785 5786 5787 5789 5791 5792 5794 5796 5798 5800
5761 5760 5760 5759 5759 5758 5757 5756 5755 5755 5755 5755 5755 5755 5756 5756 5757 5758 5759 5760 5761 5762 5763 5763 5765 5766 5767 5768 5769 5771 5772 5773 5775 5776 5777 5779 5781 5782 5784 5786 5788 5790 5792
5751 5751 5751 5750 5749 5748 5747 5746 5746 5746 5745 5745 5745 5746 5746 5747 5748 5748 5750 5751 5752 5752 5754 5755 5756 5757 5758 5759 5760 5761 5763 5764 5765 5767 5768 5770 5772 5773 5775 5777 5779 5781 5784
5742 5741 5741 5740 5739 5738 5737 5736 5735 5735 5735 5735 5735 5736 5736 5737 5738 5739 5740 5741 5742 5743 5744 5745 5746 5747 5748 5749 5751 5752 5753 5754 5755 5757 5758 5760 5762 5764 5766 5768 5770 5772 5774
5732 5731 5730 5729 5728 5728 5727 5726 5724 5723 5723 5724 5724 5725 5726 5726 5727 5728 5729 5731 5732 5733 5734 5735 5736 5737 5738 5739 5740 5742 5743 5744 5745 5747 5748 5750 5752 5754 5756 5758 5761 5763 5765
5721 5720 5719 5718 5717 5716 5715 5714 5713 5712 5712 5712 5712 5713 5714 5715 5716 5717 5718 5720 5721 5723 5724 5725 5726 5726 5728 5729 5730 5731 5732 5733 5734 5736 5738 5740 5742 5744 5746 5748 5750 5753 5755
5710 5709 5708 5707 5706 5704 5703 5702 5701 5700 5699 5699 5700 5701 5702 5703 5704 5705 5707 5708 5710 5711 5713 5714 5715 5716 5717 5718 5719 5721 5722 5722 5724 5725 5727 5729 5731 5733 5735 5737 5739 5742 5744
5699 5697 5696 5695 5694 5692 5691 5689 5688 5687 5687 5687 5687 5688 5689 5691 5692 5693 5695 5697 5698 5700 5701 5702 5703 5705 5706 5707 5708 5709 5710 5712 5713 5714 5716 5717 5719 5721 5723 5725 5728 5730 5733
5687 5685 5684 5682 5681 5680 5678 5677 5676 5675 5674 5675 5675 5675 5676 5677 5679 5681 5682 5684 5686 5687 5689 5690 5692 5693 5694 5695 5696 5697 5698 5700 5702 5703 5704 5706 5707 5709 5711 5713 5716 5718 5721
5675 5673 5672 5670 5669 5668 5666 5665 5664 5663 5662 5662 5662 5663 5663 5664 5666 5667 5669 5671 5673 5674 5676 5677 5679 5680 5681 5682 5684 5685 5686 5688 5689 5691 5693 5694 5695 5697 5699 5701 5704 5706 5709
5663 5661 5660 5659 5657 5656 5654 5653 5652 5651 5650 5650 5650 5650 5650 5651 5652 5654 5656 5657 5659 5661 5662 5664 5666 5667 5668 5670 5671 5672 5673 5675 5676 5678 5680 5682 5683 5685 5687 5689 5691 5694 5697
5651 5650 5649 5647 5646 5644 5643 5641 5640 5639 5638 5637 5637 5637 5637 5638 5639 5640 5641 5643 5645 5647 5649 5650 5652 5653 5654 5656 5658 5659 5660 5662 5663 5664 5666 5668 5670 5672 5674 5676 5678 5681 5684